Location: Goll?ig?dem
(16.6773°N, 80.7332°E)
Time: 04:59:26
(UTC+00:00)

Delta 168 - Pass Details

Date: 19 May 2025
Orbit: 391 x 1897 km, 25.3° (Epoch: 13 June)

Event Time Altitude Azimuth Distance (km) Brightness Sun altitude
Exits shadow 22:44:13 20° 319° (NW) 1,023 4.1 -18.4°
Maximum altitude 22:46:02 37° 18° (NNE) 691 3.7 -18.0°
Drops below altitude 10° 22:49:37 10° 87° (E) 1,744 6.4 -17.3°
Sets 22:52:19 0° 95° (E) 2,837 7.5 -16.7°
